Miscellaneous Local Product
Issued by NWS North Platte, NE

Home | Current Version | Previous Version | Text Only | Print | Product List | Glossary On
Versions: 1 2 3 4 5 6 7 8 9 10 11 12 13 14 15 16 17 18 19 20 21 22 23 24 25 26 27 28 29 30 31 32 33 34 35 36 37 38 39 40 41 42 43 44 45 46 47 48 49 50
000
AXUS43 KLBF 210010
MISLBF


WESTERN AND NORTH CENTRAL NEBRASKA HOURLY WEATHER ROUNDUP
NATIONAL WEATHER SERVICE NORTH PLATTE NE
600 PM CST TUE FEB 20 2018

NOTE: "FAIR" INDICATES FEW OR NO CLOUDS BELOW 12,000 FEET WITH NO
SIGNIFICANT WEATHER AND/OR OBSTRUCTIONS TO VISIBILITY.

NOTE: STATIONS NOT REPORTING VARIABLES SUCH AS SKY/WEATHER OR
PRESSURE ARE PROVIDED BY RAWS AND APRS NETWORKS AND ARE NOT UNDER
NATIONAL WEATHER SERVICE QUALITY CONTROL.

...OBSERVATIONS IN AND NEAR THE EASTERN PANHANDLE OF NEBRASKA...

CITY           SKY/WX    TMP DP  RH WIND       PRES   REMARKS
PINE RIDGE     FAIR       3  -6  66 SW9       30.16S WCI -12
GORDON         FAIR       5  -8  56 NW6       30.14S WCI  -6
CHADRON        FAIR       6  -7  54 W14       30.18R WCI -11
ALLIANCE       FAIR       4  -4  69 NE6       30.11R WCI  -7
SIDNEY         FAIR      10  -4  53 N3        30.11R
$$

...OBSERVATIONS IN NORTHERN NEBRASKA AND FAR SOUTHERN SOUTH DAKOTA...

CITY           SKY/WX    TMP DP  RH WIND       PRES   REMARKS
WINNER         FAIR       6  -3  66 W6        30.29R WCI  -4
VALENTINE      FAIR       7  -5  57 NW7       30.24R WCI  -5
AINSWORTH      FAIR       8  -1  69 NW5       30.25R WCI  -1
O`NEILL        FAIR       7   0  74 NW9       30.30R WCI  -7
THEDFORD       FAIR       8  -1  67 NW5       30.23R WCI  -1
BROKEN BOW     FAIR       9  -1  64 N9        30.26R WCI  -4
ORD            FAIR      11   2  67 N13       30.29R WCI  -4
ALBION         FAIR      12   4  70 NW12      30.30R WCI  -2
$$

...OBSERVATIONS IN SOUTHWEST NEBRASKA AND FAR NORTHEAST COLORADO...

CITY           SKY/WX    TMP DP  RH WIND       PRES   REMARKS
WRAY           FAIR      18   1  49 N8        30.17R WCI   7
HOLYOKE        FAIR      18   1  49 N9        30.15R WCI   6
IMPERIAL       FAIR      12   0  58 N7        30.20R WCI   1
OGALLALA       FAIR      13   0  56 N9        30.19R WCI   1
NORTH PLATTE   FAIR      12  -1  56 N8        30.25R WCI   0
MCCOOK         FAIR      16   4  59 N10       30.26R WCI   4
LEXINGTON      FAIR      16   4  61 N9        30.27R WCI   4
GOTHENBURG       N/A     11   0  59 N5          N/A  WCI   3
CALLAWAY         N/A     10   1  68 N5          N/A  WCI   2
$$

...OBSERVATIONS IN CENTRAL LINCOLN COUNTY AREA...

CITY           SKY/WX    TMP DP  RH WIND       PRES   REMARKS
N.P. AIRPORT   FAIR      12  -1  56 N8        30.25R WCI   0
$$

...OBSERVATIONS ACROSS THE ROCKIES AND WESTERN HIGH PLAINS...

CITY           SKY/WX    TMP DP  RH WIND       PRES   REMARKS
RAPID CITY     FAIR      -2  -9  72 S6        30.16R WCI -14
SCOTTSBLUFF    FAIR      11  -1  58 NW5       30.12R WCI   3
CHEYENNE       FAIR      13   6  74 S8        29.95R WCI   2
DENVER         MOCLDY    13   5  70 SE6       30.01R WCI   4
BERTHOUD PASS  MOCLDY    -6 -15  65 W6G30     29.70R WCI -18
COPPER MTN     MOCLDY     3  -9  55 W14G24    29.73R WCI -15
MONARCH PASS   FAIR       1  -2  85 W18G29    29.86R FOG     WCI -19
ASPEN          MOCLDY    14   8  77 N6        29.92R WCI   5
LARAMIE        FAIR       7  -2  66 W7        29.89R WCI  -5
CASPER         FAIR       9   1  70 SW7       29.97R WCI  -2
$$

...OBSERVATIONS ACROSS THE NORTHERN PLAINS...

CITY           SKY/WX    TMP DP  RH WIND       PRES   REMARKS
BISMARCK       FAIR       9  -2  61 W9        30.20R WCI  -4
FARGO          FAIR       6  -1  73 W10       30.21R WCI  -9
PIERRE         FAIR       5  -2  72 W14       30.28R WCI -12
SIOUX FALLS    FAIR       9   1  70 NW16      30.26R WCI  -8
$$

...OBSERVATIONS ACROSS THE CENTRAL AND SOUTHERN PLAINS...

CITY           SKY/WX    TMP DP  RH WIND       PRES   REMARKS
OMAHA          MOCLDY    17  10  74 NW17      30.30R WCI   1
GRAND ISLAND   FAIR      15   4  61 N17       30.28R WCI  -1
KANSAS CITY    CLOUDY    22  17  81 N13       30.22R WCI  10
WICHITA        MOCLDY    25  19  78 N18G24    30.20R WCI  11
DODGE CITY     FAIR      27   2  34 N17       30.17R WCI  14
OKLAHOMA CITY  CLOUDY    27  24  89 N17       30.12R WCI  14
DALLAS         TSTM      46  43  89 NW26G35   29.97R FOG
AMARILLO       FAIR      35  10  35 NE18      30.04R WCI  24
$$




USA.gov is the U.S. government's official web portal to all federal, state and local government web resources and services.